星链-4338 (STARLINK-4338 )

导读

STARLINK-4338是美国SpaceX公司星链星座的卫星,于2022年7月11日发射升空。星链项目计划构建覆盖全球的巨型低轨卫星互联网星座,该卫星运行在近地轨道,设计寿命超5年,配备推进系统可自主规避碰撞,为全球提供高速卫星互联网接入服务,也引发了轨道拥堵和天文观测干扰等领域争议。

Basic Information
目录编号:
53055
目录名称:
STARLINK-4338
国际标识:
2022-077N
轨道中心:
EARTH
卫星名称:
星链-4338
卫星全名:
星链-4338 (STARLINK-4338 )
卫星状态:
在轨 (已飞行1516 天)
发射日期:
2022-07-11 UTC
国别 :
美国 (US)
星等 :
--
Orbit Information
数据来源 国际轨道数据
星历时间: 2026-09-04T16:00:02+0800
7小时前
查看轨道信息
半长轴: 6874.371km
偏心率: 0.0002846
轨道倾角: 97.284°
近地点辐角 90.451°
升交点赤经 63.259°
平近点角 161.483°
近地点: 494.277km
远地点: 498.191km
周期: 94.539分钟
每日圈数: 15.231876
Detailed Information
固有亮度:
5
最大亮度:
2.5
卫星平台:
Starlink v1.5
覆盖范围:
全球
运营商:
太空探索技术公司
运营商所在国:
美国
制造商(研发单位):
太空探索技术公司
制造商所在国:
美国
使用方式:
暂无
Satellite Introduction
星链(Starlink)计划是由太空探索技术公司(SpaceX)提出的一个巨型低轨卫星互联网星座项目,计划在2019年至2024年间在太空搭建由约1.2万颗卫星组成的“星链”网络,其中1584颗将部署在地球上空550千米处的近地轨道,并从2020年开始工作。该卫星仍在工作。
2D Orbit Map
3D Orbit Map
Orbit Altitude Analysis Chart
Orbit Inclination Analysis Chart
Orbit Comprehensive Analysis Chart
View Comprehensive Chart
Conjunction Data List
Event ID Objects TCA Miss Dist (km) Collision Risk Probability Collision Risk Index (CRI) Action
CDM_260905-051905-305506-850621
AEPEX (68506)
2026-09-05T
05:19:49+0000
2.453 km
极远距离
1.778359E-6 低风险 0.4
CDM_260905-052005-305506-348921
HERMES-6 (63489)
2026-09-05T
05:20:30+0000
2.324 km
极远距离
1.522221E-6 低风险 0.39
CDM_260901-110105-305506-343021
HJS-6C (63430)
2026-09-01T
11:01:32+0000
2.038 km
极远距离
1.488342E-6 低风险 0.38